Regional Weather Roundup
Issued by NWS

Home | Current Version | Previous Version | Text Only | Print | Product List | Glossary Off
Versions: 1 2 3 4 5 6 7 8 9 10 11 12 13 14 15 16 17 18 19 20 21 22 23 24 25 26 27 28 29 30 31 32 33 34 35 36 37 38 39 40 41 42 43 44 45 46 47 48 49 50

789
ASUS44 KJAN 230810
RWRMS

MISSISSIPPI HOURLY WEATHER ROUNDUP
NATIONAL WEATHER SERVICE JACKSON MS
300 AM CDT WED APR 23 2014

NOTE: "FAIR: INDICATES FEW OR NO CLOUDS BELOW 12,000 FEET WITH NO
SIGNIFICANT WEATHER AND/OR OBSTRUCTIONS TO VISIBILITY.

MSZ001>002-007>008-010>013-018>021-025>028-034>036-230900-
NORTHWEST MISSISSIPPI

CITY           SKY/WX    TMP DP  RH WIND       PRES   REMARKS
CLARKSDALE       N/A     50  48  93 N5        29.98R
CLEVELAND      FAIR      55  52  87 CALM      29.94S
GREENWOOD      CLEAR     52  51  97 NE3       29.94F FOG
GREENVILLE     CLEAR     56  52  86 CALM      29.94S
GRENADA        FAIR      50  48  93 NW3       29.95S
OLIVE BRANCH   CLEAR     50  45  81 CALM      29.98R
OXFORD         FAIR      48  45  87 CALM      29.97S
TUNICA         SUNNY     52  45  76 N7        29.98S
$$

MSZ003>006-009-014>017-022>024-029>033-037>039-230900-
NORTHEAST MISSISSIPPI

CITY           SKY/WX    TMP DP  RH WIND       PRES   REMARKS
BELMONT        FAIR      54  45  71 N5        29.95S
COLUMBUS AFB   CLEAR     58  51  76 NW5       29.93S
CORINTH        FAIR      48  45  87 CALM      29.96S
GOLDN TRIANGLE CLEAR     57  50  77 NW6       29.95F
STARKVILLE     FAIR      55  52  88 CALM      29.94S
TUPELO         CLEAR     52  44  74 NE8       29.95R
$$

MSZ040-058-230900-
CENTRAL MISSISSIPPI

CITY           SKY/WX    TMP DP  RH WIND       PRES   REMARKS
JACKSON INTL   FOG       55  54  94 CALM      29.94S VSB 3/4
JACKSON HAWKNS CLEAR     60  57  89 CALM      29.94F
MERIDIAN KEY   FOG       54  54 100 CALM      29.92S VSB 1/2
MERIDIAN NAS   CLEAR     58  56  93 W5        29.92S
RAYMOND        HAZE      55  50  82 CALM      29.94F VSB<1/4
VICKSBURG      FOG       59  59 100 CALM      29.94F VSB 3/4
$$

MSZ059>079-230900-
SOUTH MISSISSIPPI

CITY           SKY/WX    TMP DP  RH WIND       PRES   REMARKS
BROOKHAVEN     FAIR      61  61 100 N5        29.95F
HATTIESBURG    CLEAR     57  56  96 CALM      29.92F
MCCOMB         CLEAR     59  57  93 N3        29.94S
NATCHEZ        CLEAR     57  54  88 CALM      29.95S
PINE BELT      CLEAR     61  57  88 NW3       29.93S
$$

MSZ080>082-230900-
COASTAL MISSISSIPPI

CITY           SKY/WX    TMP DP  RH WIND       PRES   REMARKS
BILOXI         CLEAR     64  64 100 N2        29.90F
PASCAGOULA     CLEAR     60  59  96 CALM      29.90F FOG
GULFPORT       CLEAR     64  60  87 NW3       29.90F FOG
$$



USA.gov is the U.S. government's official web portal to all federal, state and local government web resources and services.